This is the latest recevied weather packets stored in our database for station/object IT9CNT. If no packets are shown the sender has not sent any weather packets the latest 10 day(s).
| Time | Temp. | Humidity | Pressure | Rain* | Wind** | Luminosity | Snow |
|---|---|---|---|---|---|---|---|
| 1787685543 | 29.44° C | 83% | 1014.7 hPa | 10.16 mm | - | - | - |
| 1787685483 | 29.44° C | 83% | 1014.5 hPa | 9.65 mm | - | - | - |
| 1787685423 | 29.44° C | 83% | 1014.5 hPa | 9.65 mm | - | - | - |
| 1787685363 | 29.44° C | 83% | 1014.5 hPa | 9.4 mm | - | - | - |
| 1787685303 | 29.44° C | 83% | 1014.7 hPa | 8.89 mm | - | - | - |
| 1787685243 | 29.44° C | 83% | 1014.5 hPa | 8.64 mm | - | - | - |
| 1787685183 | 29.44° C | 83% | 1014.6 hPa | 8.38 mm | - | - | - |
| 1787685124 | 29.44° C | 83% | 1014.6 hPa | 7.87 mm | - | - | - |
| 1787685064 | 29.44° C | 83% | 1014.6 hPa | 7.87 mm | - | - | - |
| 1787685003 | 29.44° C | 83% | 1014.4 hPa | 7.62 mm | - | - | - |
| 1787684943 | 29.44° C | 83% | 1014.4 hPa | 7.11 mm | - | - | - |
| 1787684883 | 29.44° C | 84% | 1014.4 hPa | 6.6 mm | - | - | - |
| 1787684823 | 29.44° C | 84% | 1014.5 hPa | 6.35 mm | - | - | - |
| 1787684764 | 29.44° C | 84% | 1014.3 hPa | 6.1 mm | - | - | - |
| 1787684703 | 29.44° C | 84% | 1014.4 hPa | 6.1 mm | - | - | - |
| 1787684643 | 29.44° C | 83% | 1014.3 hPa | 5.33 mm | - | - | - |
| 1787684583 | 29.44° C | 84% | 1014.2 hPa | 5.08 mm | - | - | - |
| 1787684523 | 29.44° C | 84% | 1014.3 hPa | 4.57 mm | - | - | - |
| 1787684463 | 29.44° C | 84% | 1014.3 hPa | 4.57 mm | - | - | - |
| 1787684404 | 29.44° C | 84% | 1014.3 hPa | 3.81 mm | - | - | - |
| 1787684343 | 29.44° C | 84% | 1014.2 hPa | 3.81 mm | - | - | - |
| 1787684283 | 29.44° C | 83% | 1014.2 hPa | 3.56 mm | - | - | - |
| 1787684223 | 29.44° C | 83% | 1014.2 hPa | 3.3 mm | - | - | - |
| 1787684163 | 29.44° C | 83% | 1014.1 hPa | 2.79 mm | - | - | - |
| 1787684103 | 29.44° C | 83% | 1014.1 hPa | 2.79 mm | - | - | - |
* Rain latest hour (hover to see other rain measurements)
** Current wind speed in m/s (hover to see current wind gust speed)